Regional Weather Roundup
Issued by NWS Upton, NY

Current Version | Previous Version | Graphics & Text | Print | Product List | Glossary Off
Versions: 1 2 3 4 5 6 7 8 9 10 11 12 13 14 15 16 17 18 19 20 21 22 23 24 25 26 27 28 29 30 31 32 33 34 35 36 37 38 39 40 41 42 43 44 45 46 47 48 49 50

000
ASUS41 KOKX 071708
RWROKX

REGIONAL WEATHER ROUNDUP
NATIONAL WEATHER SERVICE NEW YORK NY
100 PM EDT TUE JUL 07 2015

NOTE: "FAIR" INDICATES FEW OR NO CLOUDS BELOW 12,000 FEET WITH NO
SIGNIFICANT WEATHER AND/OR OBSTRUCTIONS TO VISIBILITY.

NYZ071-072-176-178-NJZ106-104-071800-
NEW YORK CITY METRO AREA


CITY           SKY/WX    TMP DP  RH WIND       PRES   REMARKS
CENTRAL PARK   MOSUNNY   85  69  58 W8        30.02F
LAGUARDIA APRT MOSUNNY   86  72  62 S13       29.99F HX  92
KENNEDY INTL   MOSUNNY   84  73  69 S16       30.02F HX  90
NEWARK/LIBERTY PTSUNNY   88  70  55 W10       29.98F HX  93
BRNX BOT. GARD   N/A     82  72  69 S5        30.02S
TETERBORO      PTSUNNY   87  69  54 S10G18    29.97F HX  91
$$

NYZ177-179-078>081-071800-
LONG ISLAND NEW YORK

CITY           SKY/WX    TMP DP  RH WIND       PRES   REMARKS
FARMINGDALE    MOSUNNY   83  75  77 S12       30.02F HX  90
ISLIP          PTSUNNY   79  73  82 S10       30.02F
SHIRLEY        CLOUDY    77  72  84 S10       30.05F
WESTHAMPTON    CLOUDY    77  74  90 S10       30.06F FOG
MONTAUK POINT    N/A     77  72  84 S9        30.07F
$$

NYZ052-065-067-071800-
HUDSON VALLEY

CITY           SKY/WX    TMP DP  RH WIND       PRES   REMARKS
WHITE PLAINS   MOSUNNY   81  73  76 S8        30.00F FOG
NEWBURGH       MOSUNNY   82  73  74 SW8       30.01F
MONTGOMERY     MOSUNNY   86  72  62 SW10      29.98F HX  92
POUGHKEEPSIE   MOSUNNY   86  71  60 VRB7      29.97F HX  91
ALBANY         PTSUNNY   82  70  66 S10       29.96F
$$

NJZ001-105-106-008-010-013-015-019>022-104-071800-
NEW JERSEY

CITY           SKY/WX    TMP DP  RH WIND       PRES   REMARKS
NEWARK/LIBERTY PTSUNNY   88  70  55 W10       29.98F HX  93
TETERBORO      PTSUNNY   87  69  54 S10G18    29.97F HX  91
CALDWELL       MOSUNNY   84  68  58 SW7       29.99F
MORRISTOWN     PTSUNNY   88  73  62 W8        30.00F HX  96
SOMERVILLE     CLOUDY    83  71  67 VRB5      29.98F
SUSSEX         PTSUNNY   84  70  62 SW8G16    29.99
ANDOVER          N/A     82  71  69 SW7       30.01F
TRENTON        MOSUNNY   85  71  63 SW10      29.99F HX  90
MILLVILLE      PTSUNNY   85  73  67 SW7       30.03F HX  91
ATLANTIC CITY  MOSUNNY   87  71  58 SW14      30.02F HX  93
WRIGHTSTOWN    MOSUNNY   88  72  59 SW13      29.98F HX  95
TOMS RIVER     MOSUNNY   82  77  83 SW6       30.01F HX  91
BELMAR         MOSUNNY   81  72  74 S12G17    30.01S THUNDER
$$

PAZ047>061-062-071-071800-
EASTERN PENNSYLVANIA

CITY           SKY/WX    TMP DP  RH WIND       PRES   REMARKS
PHILADELPHIA   MOSUNNY   87  69  54 SW10      30.01F HX  91
ALLENTOWN      MOSUNNY   84  72  65 SW7       30.00F
SCRANTON       CLOUDY    78  68  71 SW6       30.01F
$$

CTZ002-004>006-009-010-012-RIZ004-006-007-MAZ004-011-015-071800-
SOUTHERN NEW ENGLAND
 IN CT

CITY           SKY/WX    TMP DP  RH WIND       PRES   REMARKS
BRADLEY INTL   LGT RAIN  77  72  84 SW7       30.00F
HARTFORD       CLOUDY    81  72  74 S17G24    30.00F
DANBURY        PTSUNNY   82  69  64 SW12G20   30.02F
WTRBRY/OXFORD  CLOUDY    79  70  73 S13       30.05F FOG
BRIDGEPORT     MOSUNNY   83  73  72 S10       30.01F
MERIDEN        LGT RAIN  80  71  74 S8        30.01F
NEW HAVEN      SUNNY     80  72  76 SE14      30.03F
CHESTER        CLOUDY    79  72  78 S12       30.06F
GROTON         CLOUDY    74  71  91 SE10      30.05F FOG
WILLIMANTIC    MOSUNNY   82  71  69 S12       30.04F

 IN RI

CITY           SKY/WX    TMP DP  RH WIND       PRES   REMARKS
PROVIDENCE     PTSUNNY   80  72  76 S15       30.06F
BLOCK ISLAND   CLOUDY    77  72  83 S14G21    30.08F
WESTERLY       FOG       73  72  96 S13       30.07F VSB 3/4

 IN MA

CITY           SKY/WX    TMP DP  RH WIND       PRES   REMARKS
BOSTON         LGT RAIN  80  70  71 SE13      30.04F
WORCESTER      PTSUNNY   80  68  66 S15G24    30.06F
WESTFIELD      CLOUDY    80  71  74 S10       30.00F
PROVINCETOWN   SUNNY     81  70  69 S17       30.08F
NANTUCKET      CLOUDY    72  68  87 SE10      30.11F FOG
$$

ANZ330-335-338-340-345-350-353-355-071800-
COASTAL MARINE OBSERVATIONS


STATION/POSITION TIME  SKY/WX   TEMP    WIND        PRES    VSBY  WAVE
                                AIR SEA DIR/SP/G                  HT/PER
                 (UTC)          (F)     (DEG/KT/KT) (MB)    (MI)  (FT/S)
NY HARB ENTRANCE 1650            74 73  180/ 14/ 17 1015.9          2/15
4S FIRE IS       1603               70                N/A           2/ 4
20S FIRE ISLAND  1650            73 71  180/ 10/ 12 1016.7          2/14
GREAT SOUTH BAY  1600            73 77  230/ 10/ 14   N/A
23SW MTP         1650            72 70  170/ 10/ 10 1017.7          2/ 9
HUDSON CANYON    NOT AVBL
KINGS POINT      1600               72                N/A
CENTRAL LI SOUND NOT AVBL
EASTERN LI SOUND 1600            69 65  130/  8/  8   N/A
ROBBINS REEF     1606            80     160/ 16/ 18 1015.0
$$


>>>>>>>>>>>>>>>>>>>>>>>>>>>> KEY <<<<<<<<<<<<<<<<<<<<<<<<<<<
>                                                          <
>     SKY/WX - SKY CONDITION/PRESENT WEATHER               <
>     TMP    - TEMPERATURE IN FAHRENHEIT                   <
>     DP     - DEWPOINT IN FAHRENHEIT                      <
>     RH     - RELATIVE HUMIDITY IN PERCENT                <
>     WIND   - DIRECTION AND SPEED IN MPH                  <
>     PRES   - MEAN SEA LEVEL PRESSURE IN INCHES OF HG     <
>     WCI    - WIND CHILL INDEX                            <
>     VSB    - VISIBILITY IN MILES                         <
>     HX     - HEAT INDEX                                  <
>     TC     - TEMPERATURE IN CELSIUS                      <
>     VRB    - VARIABLE WIND DIRECTION                     <
>                                                          <
>>>>>>>>>>>>>>>>>>>>>>>>>>>> KEY <<<<<<<<<<<<<<<<<<<<<<<<<<<




USA.gov is the U.S. government's official web portal to all federal, state and local government web resources and services.